Regional Weather Roundup
Issued by NWS

Home | Current Version | Previous Version | Graphics & Text | Print | Product List | Glossary On
Versions: 1 2 3 4 5 6 7 8 9 10 11 12 13 14 15 16 17 18 19 20 21 22 23 24 25 26 27 28 29 30 31 32 33 34 35 36 37 38 39 40 41 42 43 44 45 46 47 48 49 50
000
ASUS43 KDMX 010307
RWRIA

WEATHER ROUNDUP FOR IOWA
NATIONAL WEATHER SERVICE DES MOINES IA
1000 PM CDT THU JUL 31 2014

NOTE: "FAIR" INDICATES FEW OR NO CLOUDS BELOW 12,000 FEET WITH NO
SIGNIFICANT WEATHER AND/OR OBSTRUCTIONS TO VISIBILITY.

* - THESE STATIONS ARE NOT NWS STATIONS...THUS NOT UNDER NWS
QUALITY CONTROL.  THEY ALSO DO NOT REPORT WEATHER SUCH
AS PRECIPITATION OR FOG.

IAZ001>003-012>014-020>022-031>034-043>046-010400-
   NORTHWEST IOWA

CITY           SKY/WX    TMP DP  RH WIND       PRES   REMARKS
CARROLL *      CLEAR     61  59  94 CALM      30.05R
CHEROKEE *     PTCLDY    63  61  94 E5        30.05R
DENISON *      PTCLDY    63  63 100 CALM      30.03S
LE MARS *      CLEAR     64  61  88 CALM      30.05R
ORANGE CITY *  CLEAR     68  57  68 CALM      30.06R
SHELDON *      PTCLDY    63  59  88 CALM      30.05R
SIOUX CITY     CLEAR     63  60  90 CALM      30.04S
SPENCER        PTCLDY    66  58  75 E3        30.06R
STORM LAKE *   CLEAR     61  61 100 CALM      30.07R
$$

IAZ055>058-069>071-079>083-090>094-010400-
   SOUTHWEST IOWA

CITY           SKY/WX    TMP DP  RH WIND       PRES   REMARKS
ATLANTIC *     CLOUDY    68  63  83 CALM      30.04S
AUDUBON *      PTCLDY    66  64  94 CALM      30.06S
CLARINDA *     CLEAR     66  63  88 CALM      30.05R
COUNCIL BLFS *   N/A     70  63  78 E8        30.03R
CRESTON *      PTCLDY    66  61  82 NE7       30.06R
HARLAN  *      CLOUDY    66  61  82 CALM      30.08R
LAMONI         PTCLDY    73  55  53 S3        30.05R
RED OAK *      MOCLDY    70  61  73 CALM      30.05R
SHENANDOAH *   CLEAR     70  61  73 CALM      30.04R
$$

IAZ047>049-059>061-072>074-084-010400-
   CENTRAL IOWA

CITY           SKY/WX    TMP DP  RH WIND       PRES   REMARKS
AMES           PTCLDY    64  61  90 CALM      30.05R
ANKENY *       CLEAR     64  63  94 CALM      30.05R
CHARITON *     PTCLDY    70  61  73 CALM      30.05R
DES MOINES     MOCLDY    70  62  76 NE5       30.04R
GRINNELL*      PTCLDY    68  63  83 W5        30.06R
KNOXVILLE *    CLOUDY    70  61  73 CALM      30.04R
MARSHALLTOWN   CLEAR     67  61  81 W6        30.05R
PELLA *        CLOUDY    70  63  78 NW5       30.06R
PERRY *          N/A     64  63  94 CALM      30.05S
$$

IAZ004>006-015-016-023>025-035-036-010400-
   NORTH CENTRAL IOWA

CITY           SKY/WX    TMP DP  RH WIND       PRES   REMARKS
ALGONA *       PTCLDY    68  61  77 W6        30.06R
CLARION *      CLEAR     64  63  94 CALM      30.06R
ESTHERVILLE    PTCLDY    64  61  90 SW5       30.05R
FORT DODGE *   PTCLDY    64  59  82 CALM      30.07R
MASON CITY     CLEAR     64  59  83 CALM      30.06R
FOREST CITY *  CLEAR     63  63 100 CALM      30.05R
IOWA FALLS *     N/A     64  59  82 SW6       30.06S
$$

IAZ007>011-017>019-026>030-037>042-050>054-066-010400-
   NORTHEAST IOWA

CITY           SKY/WX    TMP DP  RH WIND       PRES   REMARKS
CEDAR RAPIDS   PTCLDY    67  62  84 S3        30.04R
CHARLES CITY * CLEAR     63  61  94 CALM      30.05R
CLINTON *      PTCLDY    66  61  82 CALM      30.08R
DECORAH *      CLEAR     64  57  77 CALM      30.04R
DUBUQUE        CLEAR     64  60  87 SW3       30.06R
MONTICELLO *   MOCLDY    64  63  94 CALM      30.05R
OELWEIN *      CLEAR     66  61  82 SW3       30.05S
WATERLOO       PTCLDY    67  60  78 CALM      30.03R
$$

IAZ064-065-067-068-078-010400-
   EAST CENTRAL IOWA

CITY           SKY/WX    TMP DP  RH WIND       PRES   REMARKS
DAVENPORT      PTCLDY    64  60  87 CALM      30.06R
IOWA CITY      PTCLDY    69  62  78 CALM      30.06R
MT. PLEASANT * PTCLDY    68  63  83 SE3       30.05S
MUSCATINE *    CLEAR     68  63  83 CALM      30.05R
QUAD CITIES    CLEAR     71  63  75 CALM      30.05R
$$

IAZ062-063-075>077-085>089-095>099-010400-
   SOUTHEAST IOWA

CITY           SKY/WX    TMP DP  RH WIND       PRES   REMARKS
BURLINGTON     PTCLDY    66  63  90 CALM      30.05R FOG
FAIRFIELD *    CLOUDY    72  63  73 CALM      30.05S
FORT MADISON * CLEAR     70  64  83 CALM      30.06S
KEOKUK *       CLEAR     68  63  83 CALM      30.05S
OSKALOOSA *    CLOUDY    70  64  83 SW3       30.05S
CENTERVILLE *  CLEAR     64  64 100 SE3       30.07R
OTTUMWA        CLOUDY    69  64  84 SE3       30.05R
WASHINGTON *   CLEAR     70  64  83 CALM      30.05S
$$

ABBREVIATIONS USED IN REMARKS
   TC - TEMPERATURES IN CELSIUS
  WCI - WIND CHILL INDEX
   HX - HEAT INDEX
  VSB - VISIBILITY
$$



USA.gov is the U.S. government's official web portal to all federal, state and local government web resources and services.